FENGYUN 1C DEB, 31437

Orbit data source: Space-Track

FENGYUN 1C DEB, 31437 is space debris in SSO originally from a launch on Mon, 10 May 1999 UTC launched from the Taiyaun Space Center, China (TSC). Fengyun 1C debris stems from the Chinese weather satellite Fengyun-1C, which was intentionally destroyed by a Chinese anti-satellite missile in 2007. This event dramatically increased the amount of space debris, with thousands of trackable fragments posing hazards to satellites and human spaceflight. The Fengyun 1C debris cloud has become a focal point in discussions about space sustainability and the need for international regulations to prevent the creation of new debris.

Loading next visibility...
Identifier
31437, 1999-025BTZ
Orbit
SSO
Country
Flag of CNCN / PRC
Related business
Manufacturer
Unknown
Mission
Spacecraft
Bus & Motor
Unknown
Mass
Unknown
Launch date (UTC)
1999-05-10 (27 years ago)
Launch vehicle
Unknown
Launch site
Taiyaun Space Center, China (TSC)
Object type
Payload
Rocket body
Debris
Shape & HBR
Unknown shape, 0.1 m
Radar Cross Section
Medium (>0.1 m² and <1 m²)

Expand to show TLE details & history
Last TLE update: 16 hours ago

TLE from 16 hours ago
0 FENGYUN 1C DEB
1 31437U 99025BTZ 26257.74449197  .00004365  00000-0  12346-2 0  9996
2 31437  98.8587 355.3568 0015657 149.3419 210.8689 14.46066975  4810
Epoch: 2026-09-14T17:52Z
TLE epoch observation values (Epoch: 2026-09-14T17:52:04.106Z)
Latitude
-0.00005°
Longitude
93.61931°
Altitude
751.039 km
Speed
7.474 km/s
True Right ascension
23h 41m 25s
True Declination
0° 00' 00"
Sunlit
Object was in full shadow at epoch
Visualization orbit readout
Latitude
Unknown
Longitude
Unknown
Altitude
Unknown
Speed
Unknown
Apparent Right ascension
Unknown
Apparent Declination
Unknown
Sunlit
N/A
Visualization observer readout
Local Sidereal Time
02:58:20
Azimuth
Unknown
Elevation
Unknown
Doppler factor
Unknown
Orbital elements
Apogee altitude
746.792 km
Perigee altitude
724.516 km
Semi-major axis
7,113.791 km
Eccentricity
0.00157
Inclination
98.8587°
RAAN
355.3568°
Arg. of periapsis
149.3419°
True anomaly
210.777°
Mean anomaly
210.8689°
Eccentric anomaly
210.82293°
Mean motion
3.61736 °/min
Orbital period
99.52 mins
BSTAR
0.0012346
Loading maneuver chart data...
Computing Atmospheric mass density...
Loading historical data...
Loading historical data...
Loading historical data...
Loading historical data...
Loading historical data...
Loading historical data...
Loading historical data...

Documentation

Showing up to 5 results
|